Flag for U.S.A. Weather past 2 weeks in Amarillo, Texas, U.S.A.

Now
74 °F

Scattered clouds.


Feels Like: 77 °F
Forecast: 53 / 74 °F
Wind: 18 mph from South

Location: Amarillo International Airport

Current Time: Oct 21, 2014 at 5:28:46 PM

Latest Report: Oct 21, 2014 at 4:53 PM


Visibility: 10 mi

Pressure: 29.95 "Hg

Humidity: 38%

Dew point: 47 °F

Location of AmarilloLocation

Historic Weather in Amarillo — Graph

°F

Amarillo temperature yesterday

Maximum temperature yesterday: 77 °F (at 2:53 PM)
Minimum temperature yesterday: 54 °F (at 7:53 AM)
Average temperature yesterday: 64 °F

Past Weeks' High & Low Weather Summary

 TemperatureHumidityPressure
High87 °F (Oct 8, 3:53 PM)100% (Oct 11, 4:53 AM)30.23 "Hg (Oct 11, 4:53 AM)
Low42 °F (Oct 14, 2:53 AM)16% (Oct 7, 3:53 PM)29.42 "Hg (Oct 12, 5:53 PM)
Average61 °F60%29.95 "Hg
* Reported Oct 6 3:53 PM — Oct 21 3:53 PM, Amarillo, Weather by CustomWeather, © 2014

Note: Actual official high and low records may vary slightly from our data, if they occured in-between our weather recording intervals... More about our weather records

Advertising

Amarillo weather history for previous 24 hours

 ConditionsComfort  
Time TempWeatherWind HumidityBarometerVisibility
3:53 PM
Oct 21
76 °FScattered clouds.17 mph39%29.95 "Hg10 mi
2:53 PM76 °FScattered clouds.17 mph40%29.95 "Hg10 mi
1:53 PM73 °FScattered clouds.14 mph46%29.98 "Hg10 mi
12:53 PM73 °FPartly sunny.9 mph50%30.01 "Hg10 mi
11:53 AM72 °FSunny.13 mph52%30.03 "Hg10 mi
10:53 AM67 °FPartly sunny.9 mph66%30.04 "Hg10 mi
9:53 AM60 °FPartly sunny.5 mph80%30.06 "Hg10 mi
8:53 AM54 °FFog.6 mph93%30.06 "Hg5 mi
7:53 AM50 °FFog.7 mph93%30.05 "Hg6 mi
6:53 AM53 °FPassing clouds.8 mph89%30.02 "Hg8 mi
5:53 AM53 °FPassing clouds.7 mph89%30.00 "Hg9 mi
4:53 AM53 °FPassing clouds.7 mph89%30.00 "Hg10 mi
3:53 AM54 °FClear.8 mph90%29.99 "Hg10 mi
2:53 AM56 °FClear.8 mph84%30.00 "Hg10 mi
1:53 AM58 °FClear.9 mph81%30.00 "Hg10 mi
12:53 AM57 °FClear.7 mph81%29.99 "Hg10 mi
11:53 PM
Oct 20
58 °FPassing clouds.6 mph78%30.01 "Hg10 mi
10:53 PM63 °FPassing clouds.3 mph68%30.01 "Hg10 mi
9:53 PM62 °FPassing clouds.3 mph70%30.02 "Hg10 mi
8:53 PM66 °FPassing clouds.3 mph65%30.01 "Hg10 mi
7:53 PM68 °FSunny.No wind55%29.99 "Hg10 mi
6:53 PM70 °FSunny.7 mph53%29.97 "Hg10 mi
5:53 PM77 °FSunny.6 mph42%29.95 "Hg10 mi
Weather by CustomWeather, © 2014

See weather overviewHow to use our weather pages